| time (UTC) | temp C | wind direction | speed KPH | gust KPH | rain 1hr cm | rain 24hr cm | rain mn cm | humidity % | barometer mb |
| 20260509005526 | 12 | 157 | 8.0 | 20.9 | 0.00 | 0.00 | 0.00 | 74 | 1003.0 |
| 20260509004522 | 12 | 142 | 8.0 | 20.9 | 0.00 | 0.00 | 0.00 | 74 | 1002.8 |
| 20260509003538 | 13 | 139 | 8.0 | 12.9 | 0.00 | 0.00 | 0.00 | 73 | 1002.8 |
| 20260509002534 | 13 | 142 | 8.0 | 20.9 | 0.00 | 0.00 | 0.00 | 72 | 1002.8 |
| 20260509001530 | 13 | 144 | 4.8 | 14.5 | 0.00 | 0.00 | 0.00 | 71 | 1002.9 |
| 20260509000526 | 13 | 140 | 6.4 | 12.9 | 0.00 | 0.00 | 0.00 | 71 | 1002.9 |
| 20260508235522 | 13 | 152 | 6.4 | 16.1 | 0.00 | 0.00 | 0.00 | 70 | 1002.8 |
| 20260508234517 | 14 | 135 | 4.8 | 11.3 | 0.00 | 0.00 | 0.00 | 69 | 1002.8 |
| 20260508233533 | 14 | 146 | 8.0 | 14.5 | 0.00 | 0.00 | 0.00 | 69 | 1002.9 |
| 20260508232530 | 14 | 162 | 6.4 | 14.5 | 0.00 | 0.00 | 0.00 | 68 | 1003.0 |
| 20260508231525 | 15 | 153 | 9.7 | 24.1 | 0.00 | 0.00 | 0.00 | 67 | 1003.0 |
| 20260508230521 | 15 | 150 | 12.9 | 20.9 | 0.00 | 0.00 | 0.00 | 66 | 1002.9 |
| 20260508225517 | 15 | 157 | 12.9 | 25.7 | 0.00 | 0.00 | 0.00 | 64 | 1003.1 |
| 20260508224614 | 15 | 155 | 11.3 | 24.1 | 0.00 | 0.00 | 0.00 | 61 | 1003.0 |
| 20260508223529 | 15 | 112 | 8.0 | 22.5 | 0.00 | 0.00 | 0.00 | 62 | 1003.0 |
| 20260508222525 | 15 | 108 | 4.8 | 11.3 | 0.00 | 0.00 | 0.00 | 62 | 1003.2 |
| 20260508221521 | 15 | 115 | 8.0 | 16.1 | 0.00 | 0.00 | 0.00 | 63 | 1003.3 |
| 20260508220517 | 15 | 112 | 9.7 | 17.7 | 0.00 | 0.00 | 0.00 | 62 | 1003.3 |
| 20260508215533 | 15 | 115 | 11.3 | 17.7 | 0.00 | 0.00 | 0.00 | 63 | 1003.4 |
| 20260508214530 | 15 | 116 | 11.3 | 22.5 | 0.00 | 0.00 | 0.00 | 63 | 1003.4 |
| 20260508213526 | 15 | 118 | 12.9 | 22.5 | 0.00 | 0.00 | 0.00 | 63 | 1003.6 |
| 20260508212521 | 15 | 114 | 11.3 | 22.5 | 0.00 | 0.00 | 0.00 | 62 | 1003.7 |
| 20260508211518 | 15 | 115 | 14.5 | 27.4 | 0.00 | 0.00 | 0.00 | 62 | 1003.7 |
| 20260508210533 | 15 | 120 | 16.1 | 25.7 | 0.00 | 0.00 | 0.00 | 62 | 1003.7 |
| 20260508205549 | 15 | 121 | 16.1 | 25.7 | 0.00 | 0.00 | 0.00 | 61 | 1003.9 |
| 20260508204546 | 15 | 125 | 16.1 | 25.7 | 0.00 | 0.00 | 0.00 | 60 | 1004.0 |
| 20260508203521 | 15 | 119 | 20.9 | 35.4 | 0.00 | 0.00 | 0.00 | 59 | 1004.3 |
| 20260508202517 | 15 | 119 | 17.7 | 33.8 | 0.00 | 0.00 | 0.00 | 59 | 1004.4 |
| 20260508201533 | 15 | 116 | 17.7 | 33.8 | 0.00 | 0.00 | 0.00 | 58 | 1004.5 |
| 20260508200528 | 15 | 121 | 16.1 | 29.0 | 0.00 | 0.00 | 0.00 | 56 | 1004.7 |
| 20260508195524 | 15 | 120 | 17.7 | 33.8 | 0.00 | 0.00 | 0.00 | 53 | 1004.8 |
| 20260508194520 | 15 | 124 | 14.5 | 27.4 | 0.00 | 0.00 | 0.00 | 51 | 1005.1 |
| 20260508193516 | 16 | 121 | 16.1 | 29.0 | 0.00 | 0.00 | 0.00 | 49 | 1005.3 |
| 20260508192532 | 16 | 115 | 16.1 | 29.0 | 0.00 | 0.00 | 0.00 | 49 | 1005.4 |
| 20260508191528 | 16 | 120 | 14.5 | 25.7 | 0.00 | 0.00 | 0.00 | 50 | 1005.4 |
| 20260508190524 | 15 | 120 | 9.7 | 24.1 | 0.00 | 0.00 | 0.00 | 51 | 1005.6 |
| 20260508185520 | 15 | 117 | 9.7 | 17.7 | 0.00 | 0.00 | 0.00 | 50 | 1005.6 |
| 20260508184516 | 15 | 118 | 8.0 | 17.7 | 0.00 | 0.00 | 0.00 | 50 | 1005.8 |
| 20260508183532 | 15 | 116 | 9.7 | 20.9 | 0.00 | 0.00 | 0.00 | 50 | 1005.8 |
| 20260508182528 | 15 | 118 | 11.3 | 17.7 | 0.00 | 0.00 | 0.00 | 49 | 1006.0 |
| 20260508181524 | 15 | 118 | 11.3 | 20.9 | 0.00 | 0.00 | 0.00 | 49 | 1006.1 |
| 20260508180520 | 15 | 117 | 9.7 | 24.1 | 0.00 | 0.00 | 0.00 | 43 | 1006.3 |
| 20260508175516 | 15 | 119 | 9.7 | 22.5 | 0.00 | 0.00 | 0.00 | 46 | 1006.5 |
| 20260508174533 | 15 | 121 | 17.7 | 29.0 | 0.00 | 0.00 | 0.00 | 51 | 1006.7 |
| 20260508173528 | 15 | 116 | 9.7 | 22.5 | 0.00 | 0.00 | 0.00 | 48 | 1006.9 |
| 20260508172525 | 15 | 117 | 12.9 | 22.5 | 0.00 | 0.00 | 0.00 | 48 | 1007.0 |
| 20260508171520 | 15 | 121 | 14.5 | 22.5 | 0.00 | 0.00 | 0.00 | 49 | 1007.1 |
| 20260508170537 | 15 | 119 | 9.7 | 16.1 | 0.00 | 0.00 | 0.00 | 50 | 1007.2 |
| 20260508165532 | 15 | 121 | 12.9 | 25.7 | 0.00 | 0.00 | 0.00 | 49 | 1007.4 |
| 20260508164529 | 15 | 123 | 12.9 | 22.5 | 0.00 | 0.00 | 0.00 | 51 | 1007.6 |
| 20260508163525 | 15 | 129 | 11.3 | 24.1 | 0.00 | 0.00 | 0.00 | 53 | 1007.7 |
| 20260508162520 | 15 | 125 | 11.3 | 17.7 | 0.00 | 0.00 | 0.00 | 53 | 1007.5 |
| 20260508161537 | 15 | 129 | 12.9 | 22.5 | 0.00 | 0.00 | 0.00 | 52 | 1007.7 |
| 20260508160533 | 15 | 127 | 12.9 | 17.7 | 0.00 | 0.00 | 0.00 | 54 | 1007.8 |
| 20260508155529 | 15 | 129 | 9.7 | 16.1 | 0.00 | 0.00 | 0.00 | 56 | 1007.8 |
| 20260508154525 | 15 | 130 | 6.4 | 14.5 | 0.00 | 0.00 | 0.00 | 56 | 1007.8 |
| 20260508153522 | 14 | 134 | 9.7 | 16.1 | 0.00 | 0.00 | 0.00 | 58 | 1007.7 |
| 20260508152517 | 14 | 127 | 9.7 | 17.7 | 0.00 | 0.00 | 0.00 | 58 | 1008.0 |
| 20260508151533 | 14 | 133 | 6.4 | 14.5 | 0.00 | 0.00 | 0.00 | 60 | 1007.9 |
| 20260508150529 | 13 | 132 | 8.0 | 14.5 | 0.00 | 0.00 | 0.00 | 61 | 1008.0 |
| 20260508145525 | 13 | 135 | 9.7 | 17.7 | 0.00 | 0.00 | 0.00 | 61 | 1008.1 |
| 20260508144521 | 13 | 138 | 6.4 | 12.9 | 0.00 | 0.00 | 0.00 | 62 | 1008.1 |
| 20260508143517 | 12 | 135 | 4.8 | 12.9 | 0.00 | 0.00 | 0.00 | 62 | 1008.3 |
| 20260508142533 | 12 | 155 | 6.4 | 14.5 | 0.00 | 0.00 | 0.00 | 61 | 1008.3 |
| 20260508141529 | 12 | 133 | 4.8 | 11.3 | 0.00 | 0.00 | 0.00 | 62 | 1008.3 |
| 20260508140525 | 12 | 139 | 3.2 | 9.7 | 0.00 | 0.00 | 0.00 | 63 | 1008.5 |
| 20260508135521 | 11 | 139 | 4.8 | 14.5 | 0.00 | 0.00 | 0.00 | 64 | 1008.5 |
| 20260508134517 | 11 | 140 | 4.8 | 12.9 | 0.00 | 0.00 | 0.00 | 64 | 1008.5 |
| 20260508133553 | 11 | 136 | 4.8 | 11.3 | 0.00 | 0.00 | 0.00 | 64 | 1008.3 |
| 20260508132529 | 11 | 158 | 6.4 | 12.9 | 0.00 | 0.00 | 0.00 | 64 | 1008.5 |
| 20260508131525 | 10 | 154 | 6.4 | 14.5 | 0.00 | 0.00 | 0.00 | 64 | 1008.4 |
| 20260508130521 | 10 | 154 | 4.8 | 9.7 | 0.00 | 0.00 | 0.00 | 66 | 1008.3 |
| 20260508125517 | 10 | 263 | 6.4 | 11.3 | 0.00 | 0.00 | 0.00 | 66 | 1008.2 |
| 20260508124533 | 10 | 285 | 3.2 | 9.7 | 0.00 | 0.00 | 0.00 | 67 | 1008.3 |
| 20260508123549 | 10 | 281 | 4.8 | 9.7 | 0.00 | 0.00 | 0.00 | 68 | 1008.3 |
| 20260508122525 | 9 | 23 | 4.8 | 11.3 | 0.00 | 0.00 | 0.00 | 68 | 1007.9 |
| 20260508121542 | 9 | 16 | 3.2 | 4.8 | 0.00 | 0.00 | 0.00 | 69 | 1007.8 |
| 20260508120518 | 8 | 329 | 3.2 | 4.8 | 0.00 | 0.00 | 0.00 | 70 | 1007.8 |
| 20260508115533 | 8 | 329 | 0.0 | 3.2 | 0.00 | 0.00 | 0.00 | 70 | 1007.7 |
| 20260508114530 | 8 | 329 | 0.0 | 3.2 | 0.00 | 0.00 | 0.00 | 72 | 1007.6 |
| 20260508113526 | 8 | 329 | 1.6 | 3.2 | 0.00 | 0.00 | 0.00 | 73 | 1007.5 |
| 20260508112522 | 7 | 326 | 0.0 | 1.6 | 0.00 | 0.00 | 0.00 | 73 | 1007.5 |
| 20260508111518 | 7 | 326 | 0.0 | 1.6 | 0.00 | 0.00 | 0.00 | 74 | 1007.4 |
| 20260508110534 | 7 | 0.0 | 0.0 | 0.00 | 0.00 | 0.00 | 74 | 1007.5 | |
| 20260508105530 | 6 | 326 | 0.0 | 1.6 | 0.00 | 0.00 | 0.00 | 74 | 1007.4 |
| 20260508104526 | 6 | 0.0 | 0.0 | 0.00 | 0.00 | 0.00 | 74 | 1007.4 | |
| 20260508103522 | 6 | 327 | 1.6 | 3.2 | 0.00 | 0.00 | 0.00 | 73 | 1007.4 |
| 20260508102518 | 6 | 325 | 0.0 | 1.6 | 0.00 | 0.00 | 0.00 | 73 | 1007.4 |
| 20260508101534 | 6 | 0.0 | 0.0 | 0.00 | 0.00 | 0.00 | 73 | 1007.4 | |
| 20260508100550 | 6 | 325 | 0.0 | 1.6 | 0.00 | 0.00 | 0.00 | 72 | 1007.4 |
| 20260508095546 | 6 | 325 | 0.0 | 1.6 | 0.00 | 0.00 | 0.00 | 73 | 1007.5 |
| 20260508094522 | 6 | 325 | 0.0 | 3.2 | 0.00 | 0.00 | 0.00 | 73 | 1007.6 |
| 20260508093518 | 6 | 324 | 0.0 | 1.6 | 0.00 | 0.00 | 0.00 | 73 | 1007.6 |
| 20260508092533 | 7 | 324 | 0.0 | 1.6 | 0.00 | 0.00 | 0.00 | 72 | 1007.5 |
| 20260508091530 | 7 | 324 | 0.0 | 1.6 | 0.00 | 0.00 | 0.00 | 71 | 1007.5 |
| 20260508090526 | 7 | 325 | 0.0 | 1.6 | 0.00 | 0.00 | 0.00 | 71 | 1007.5 |
| 20260508085522 | 7 | 326 | 0.0 | 4.8 | 0.00 | 0.00 | 0.00 | 71 | 1007.7 |
| 20260508084518 | 7 | 323 | 0.0 | 1.6 | 0.00 | 0.00 | 0.00 | 71 | 1007.7 |
| 20260508083554 | 7 | 323 | 0.0 | 1.6 | 0.00 | 0.00 | 0.00 | 70 | 1007.6 |
| 20260508082550 | 7 | 323 | 0.0 | 1.6 | 0.00 | 0.00 | 0.00 | 70 | 1007.5 |
| 20260508081525 | 7 | 323 | 0.0 | 1.6 | 0.00 | 0.00 | 0.00 | 70 | 1007.5 |
| 20260508080522 | 7 | 323 | 0.0 | 1.6 | 0.00 | 0.00 | 0.00 | 69 | 1007.6 |
| 20260508075538 | 7 | 324 | 0.0 | 3.2 | 0.00 | 0.00 | 0.00 | 69 | 1007.5 |
| 20260508074534 | 7 | 323 | 0.0 | 3.2 | 0.00 | 0.00 | 0.00 | 69 | 1007.4 |
| 20260508073550 | 7 | 322 | 1.6 | 4.8 | 0.00 | 0.00 | 0.00 | 69 | 1007.4 |
| 20260508072526 | 7 | 318 | 1.6 | 6.4 | 0.00 | 0.00 | 0.00 | 69 | 1007.7 |
| 20260508071522 | 7 | 315 | 1.6 | 3.2 | 0.00 | 0.00 | 0.00 | 69 | 1007.5 |
| 20260508070517 | 7 | 319 | 1.6 | 6.4 | 0.00 | 0.00 | 0.00 | 69 | 1007.5 |
| 20260508065533 | 7 | 316 | 1.6 | 4.8 | 0.00 | 0.00 | 0.00 | 69 | 1007.6 |
| 20260508064550 | 7 | 308 | 1.6 | 9.7 | 0.00 | 0.00 | 0.00 | 70 | 1007.7 |
| 20260508063527 | 8 | 301 | 0.0 | 3.2 | 0.00 | 0.00 | 0.00 | 70 | 1007.7 |
| 20260508062522 | 8 | 305 | 0.0 | 1.6 | 0.00 | 0.00 | 0.00 | 70 | 1007.4 |
| 20260508061517 | 8 | 306 | 1.6 | 4.8 | 0.00 | 0.00 | 0.00 | 71 | 1007.7 |
| 20260508060533 | 8 | 305 | 1.6 | 3.2 | 0.00 | 0.00 | 0.00 | 69 | 1007.8 |
| 20260508055529 | 8 | 303 | 0.0 | 1.6 | 0.00 | 0.00 | 0.00 | 69 | 1007.7 |
| 20260508054525 | 8 | 0.0 | 0.0 | 0.00 | 0.00 | 0.00 | 68 | 1007.8 | |
| 20260508053522 | 8 | 298 | 0.0 | 1.6 | 0.00 | 0.00 | 0.00 | 67 | 1007.9 |
| 20260508052518 | 8 | 297 | 1.6 | 3.2 | 0.00 | 0.00 | 0.00 | 67 | 1008.2 |
| 20260508051553 | 8 | 298 | 0.0 | 3.2 | 0.00 | 0.00 | 0.00 | 67 | 1008.2 |
| 20260508050529 | 9 | 308 | 1.6 | 3.2 | 0.00 | 0.00 | 0.00 | 65 | 1008.2 |
| 20260508045526 | 9 | 322 | 0.0 | 3.2 | 0.00 | 0.00 | 0.00 | 64 | 1008.0 |
| 20260508044521 | 9 | 0.0 | 0.0 | 0.00 | 0.00 | 0.00 | 64 | 1007.8 | |
| 20260508043517 | 9 | 0.0 | 0.0 | 0.00 | 0.00 | 0.00 | 63 | 1007.9 | |
| 20260508042533 | 9 | 0.0 | 0.0 | 0.00 | 0.00 | 0.00 | 63 | 1007.9 | |
| 20260508041529 | 9 | 0.0 | 0.0 | 0.00 | 0.00 | 0.00 | 62 | 1007.8 | |
| 20260508040525 | 9 | 345 | 1.6 | 3.2 | 0.00 | 0.00 | 0.00 | 61 | 1007.7 |
| 20260508035541 | 9 | 344 | 0.0 | 1.6 | 0.00 | 0.00 | 0.00 | 61 | 1007.7 |
| 20260508034516 | 9 | 345 | 1.6 | 4.8 | 0.00 | 0.00 | 0.00 | 60 | 1007.9 |
| 20260508033533 | 9 | 343 | 1.6 | 3.2 | 0.00 | 0.00 | 0.00 | 59 | 1008.0 |
| 20260508032529 | 9 | 343 | 0.0 | 3.2 | 0.00 | 0.00 | 0.00 | 58 | 1008.1 |
| 20260508031524 | 10 | 334 | 0.0 | 1.6 | 0.00 | 0.00 | 0.00 | 57 | 1008.1 |
| 20260508030521 | 10 | 333 | 0.0 | 3.2 | 0.00 | 0.00 | 0.00 | 56 | 1008.0 |
| 20260508025516 | 10 | 329 | 0.0 | 3.2 | 0.00 | 0.00 | 0.00 | 54 | 1007.9 |
| 20260508024532 | 11 | 0.0 | 0.0 | 0.00 | 0.00 | 0.00 | 48 | 1007.7 | |
| 20260508023528 | 11 | 307 | 1.6 | 4.8 | 0.00 | 0.00 | 0.00 | 48 | 1007.8 |
| 20260508022524 | 11 | 308 | 1.6 | 3.2 | 0.00 | 0.00 | 0.00 | 48 | 1007.8 |
| 20260508021520 | 11 | 304 | 3.2 | 9.7 | 0.00 | 0.00 | 0.00 | 47 | 1008.0 |
| 20260508020556 | 11 | 313 | 1.6 | 3.2 | 0.00 | 0.00 | 0.00 | 47 | 1007.8 |
| 20260508015532 | 11 | 300 | 4.8 | 11.3 | 0.00 | 0.00 | 0.00 | 46 | 1007.8 |
| 20260508014528 | 11 | 311 | 3.2 | 9.7 | 0.00 | 0.00 | 0.00 | 45 | 1007.8 |
| 20260508013523 | 11 | 310 | 4.8 | 11.3 | 0.00 | 0.00 | 0.00 | 44 | 1007.6 |
| 20260508012519 | 11 | 314 | 3.2 | 6.4 | 0.00 | 0.00 | 0.00 | 45 | 1007.4 |
| 20260508011515 | 11 | 306 | 3.2 | 6.4 | 0.00 | 0.00 | 0.00 | 45 | 1007.3 |
| 20260508010531 | 11 | 327 | 1.6 | 4.8 | 0.00 | 0.00 | 0.00 | 45 | 1007.0 |